Location: �terpigny
(49.8910°N, 2.9249°E)
Time: 04:19:12
(UTC+00:00)

Cosmos 332 Rocket - Pass Details

Date: 29 May 2022
Orbit: 681 x 703 km, 74.0° (Epoch: 06 July)

Event Time Altitude Azimuth Distance (km) Brightness Sun altitude
Exits shadow 23:50:35 29° 142° (SE) 1,243 4.7 -18.4°
Maximum altitude 23:52:06 37° 104° (ESE) 1,067 4.6 -18.4°
Drops below altitude 10° 23:56:29 10° 38° (NE) 2,133 7.1 -18.3°
Sets 23:58:55 0° 30° (NNE) 3,055 8.2 -18.3°
